Temp
9 9 9 9 9 9 9 9 8 9 9 9 9 9 9 9 9 10 9 9 9 10 11 11 10 11 12 9 9 11 12 13 15 16 16 14 14 13 13 13 13 13 13 13 13 13 13
9 9 9 9 9 9 9 9 8 8 9 9 9 9 9 9 9 9 9 9 9 9 10 10 11 12 12 8 9 10 12 14 16 16 14 15 14 13 12 12 13 13 12 13 12 13 12
9 9 8 8 9 8 9 8 8 8 9 10 10 10 10 10 10 10 9 9 9 9 9 10 12 12 10 9 10 12 14 15 17 17 13 14 15 14 12 12 12 13 13 13 12 13 13
9 9 8 8 8 8 9 8 8 8 9 10 10 10 11 12 11 11 10 9 9 9 10 11 10 11 8 10 11 13 15 15 16 16 15 15 15 11 12 11 11 12 11 13 14 13 13
9 9 8 8 8 8 8 8 8 9 11 11 11 11 11 11 12 11 11 12 10 10 11 12 12 11 8 11 12 13 15 14 15 16 15 16 14 10 11 10 10 9 10 14 14 13 13
9 9 8 8 8 8 8 8 8 10 12 12 11 11 12 12 12 13 12 12 11 11 11 11 11 11 9 10 11 13 14 15 13 14 13 11 9 9 8 10 11 13 10 13 14 12 13
9 9 8 8 8 8 8 8 8 8 12 13 12 12 12 12 12 12 14 14 8 10 10 9 10 10 11 11 12 13 13 14 13 11 11 10 9 7 11 12 12 11 12 13 13 12 12
9 9 8 8 8 8 8 7 8 8 11 12 13 13 13 13 13 13 12 6 7 8 10 10 10 10 11 11 12 12 14 12 12 11 12 9 9 11 12 11 11 11 12 11 12 13 12
8 8 8 8 8 8 7 7 8 8 10 11 12 12 13 13 13 13 9 8 8 9 9 10 10 10 10 12 10 11 12 12 10 10 10 9 11 12 12 11 11 10 11 12 11 11 11
8 8 8 8 7 7 7 7 8 8 10 10 11 13 13 13 13 10 9 9 9 10 6 9 11 12 12 11 12 12 12 12 11 10 10 10 11 12 11 11 11 12 12 12 11 10 9
8 8 8 7 7 7 7 7 7 7 11 11 10 11 12 13 11 10 9 9 9 10 7 10 11 13 12 11 12 12 12 11 11 11 11 10 11 11 11 12 12 12 12 12 11 9 5
8 8 8 8 8 9 9 9 8 11 12 12 11 11 12 12 11 10 9 10 9 7 7 9 11 11 11 11 12 12 11 11 12 10 10 10 12 12 12 12 12 11 11 9 8 7 5
9 8 8 9 10 9 10 9 11 12 13 12 12 12 11 11 9 9 9 9 7 6 9 10 11 11 11 11 11 11 10 9 9 8 6 9 10 11 12 12 12 10 9 5 7 6 8
9 9 9 9 10 10 10 10 10 12 13 13 13 12 11 10 10 9 9 7 6 7 9 11 12 11 11 12 12 11 11 8 10 8 5 5 8 11 12 12 12 11 9 6 9 7 7
8 9 9 9 10 11 10 11 11 12 13 13 13 13 12 10 9 9 7 6 5 8 11 11 12 11 11 12 12 11 10 10 10 10 10 8 11 12 12 12 12 11 8 11 8 9 10
9 9 10 9 9 10 11 11 12 12 12 13 13 12 11 10 9 9 6 7 9 10 11 11 11 12 12 12 12 12 11 12 11 11 10 10 10 11 12 12 11 11 10 9 10 9 8
9 9 9 10 10 10 11 11 12 13 12 13 12 8 12 11 10 7 7 8 11 11 11 11 11 12 12 12 12 12 12 12 11 11 11 11 10 10 11 10 10 10 10 10 9 10 8
9 9 9 9 10 10 11 11 12 13 14 13 9 8 14 12 7 4 8 10 11 11 11 11 11 12 12 11 12 12 12 12 11 11 11 10 8 8 10 11 11 11 10 9 8 8 10
9 9 9 9 10 10 11 11 12 13 12 12 7 4 13 12 7 5 9 11 11 11 11 11 12 12 12 12 12 12 12 11 10 11 11 10 9 6 10 11 10 10 9 9 8 8 10
9 9 9 9 9 9 10 11 12 12 12 12 7 8 7 5 5 8 10 11 11 10 11 11 12 12 12 12 12 12 12 12 10 11 12 11 8 9 9 12 10 10 9 8 9 10 9
9 9 9 9 9 9 10 10 11 12 13 12 4 6 6 6 8 9 10 10 11 11 11 11 11 11 12 12 12 11 12 12 11 12 10 9 9 6 7 8 8 9 10 9 9 11 10
8 9 9 9 9 9 9 10 11 12 13 11 8 8 5 6 7 10 8 10 11 12 11 11 11 12 10 11 11 11 11 11 11 9 9 7 9 8 6 8 8 8 8 9 9 10 10
9 9 9 9 9 9 9 9 10 11 12 9 6 6 7 5 7 7 8 11 11 11 11 11 10 11 10 10 10 9 9 10 10 8 8 7 7 7 7 8 7 9 8 9 9 8 10
9 9 9 9 9 9 9 9 9 10 10 10 7 6 7 9 7 8 10 10 11 11 11 11 10 10 11 10 9 9 7 7 7 7 7 6 7 6 7 7 8 13 11 10 9 9 9
9 9 9 9 10 10 9 9 9 9 9 9 8 7 6 8 7 8 9 9 10 9 10 10 10 9 8 9 9 9 8 9 7 6 6 6 7 7 6 5 8 12 11 9 10 12 10
9 9 9 9 9 10 10 10 10 9 9 9 8 8 6 7 8 9 9 9 8 7 8 9 9 8 8 7 8 10 10 11 10 8 5 6 7 7 7 6 10 13 12 11 11 11 12
9 9 9 10 9 9 9 10 9 9 8 8 8 8 7 6 6 8 8 9 7 6 7 7 9 9 8 7 8 8 8 9 10 9 7 8 8 9 9 9 8 9 10 12 13 14 13
9 9 9 9 10 10 9 9 9 9 9 8 8 7 7 5 5 6 8 7 6 6 8 8 8 7 6 8 8 7 6 8 8 8 6 7 8 8 9 8 7 8 9 12 12 11 12
8 8 8 8 9 9 9 9 9 9 8 8 7 7 7 6 7 7 8 9 9 9 7 6 7 7 6 5 5 5 7 5 6 9 6 8 8 7 8 9 10 8 10 10 9 9 9
Height
828 825 822 819 815 811 806 801 795 790 785 780 773 768 762 758 750 741 737 732 729 728 726 733 740 746 750 763 772 768 767 768 770 771 773 777 781 787 798 802 804 810 813 814 816 815 816
830 826 823 820 816 812 808 803 797 793 787 782 777 772 767 764 758 752 746 742 738 736 736 741 746 752 754 771 777 773 770 770 771 773 775 777 783 786 799 807 809 814 817 818 818 819 820
831 828 825 821 818 814 810 805 799 795 789 785 781 776 772 768 765 760 756 751 747 746 746 750 750 749 759 785 779 773 772 772 774 775 778 782 783 788 799 808 814 815 819 819 822 821 822
832 829 826 823 819 815 811 807 801 797 791 788 785 781 775 772 769 765 762 759 758 756 755 758 761 757 784 782 780 778 777 776 777 779 780 786 785 793 804 810 819 822 827 828 823 822 823
834 830 827 824 821 817 813 809 804 799 794 792 788 784 780 776 773 770 769 766 763 763 763 763 764 767 793 785 782 780 779 781 780 782 784 786 788 806 811 822 835 838 845 825 824 825 825
835 831 828 825 822 818 814 811 807 802 797 793 791 788 785 781 776 774 772 772 772 771 767 765 772 780 799 793 788 785 784 782 783 785 789 794 806 817 829 829 841 828 845 829 827 832 828
836 832 829 826 823 820 816 812 809 805 801 796 794 790 787 785 782 777 772 772 777 780 777 787 791 792 796 794 791 789 788 786 789 797 808 812 822 843 829 825 826 832 830 829 831 831 830
838 834 830 827 824 820 817 813 810 807 803 800 795 794 791 788 787 785 778 784 794 795 793 791 792 794 794 793 793 792 790 795 800 811 810 823 834 828 825 827 829 831 831 837 833 829 832
839 835 832 828 824 820 817 814 810 807 805 802 799 795 794 791 790 789 790 793 793 793 798 799 800 800 801 798 804 803 798 803 812 818 822 829 830 825 825 831 831 841 837 837 841 836 836
840 837 833 829 825 821 818 815 811 807 805 804 802 798 794 793 794 793 794 796 796 794 824 821 809 807 805 803 806 804 804 807 814 825 827 832 828 826 830 833 833 834 835 835 837 846 858
842 838 834 830 826 822 818 815 812 808 806 804 803 801 798 793 795 796 798 796 795 795 845 826 817 809 808 812 815 810 808 809 819 822 825 837 831 831 834 832 829 833 834 836 839 852 873
843 839 836 832 827 823 819 814 811 808 807 805 804 802 800 798 796 797 796 795 797 825 857 831 820 821 817 816 815 814 814 813 819 826 831 835 830 830 831 831 830 834 839 851 857 863 889
845 841 837 833 828 824 820 815 811 807 805 804 803 802 800 800 800 798 796 795 825 854 842 834 828 824 821 823 821 824 827 832 834 848 862 844 838 832 830 831 831 839 852 889 875 882 865
846 842 838 834 830 825 820 816 811 806 802 800 801 800 800 799 798 798 798 812 847 855 839 826 824 824 825 823 824 827 829 843 832 839 867 871 865 833 830 830 833 839 848 881 867 881 872
847 844 840 836 831 826 821 816 811 806 802 801 800 799 799 799 797 797 804 839 861 846 831 830 828 828 827 823 824 829 833 836 832 833 839 852 838 831 831 829 832 838 856 842 862 855 852
849 845 841 837 833 828 823 817 812 807 803 801 800 799 799 798 797 797 815 843 838 836 831 831 831 827 827 825 825 826 828 827 828 830 832 835 842 832 830 830 833 834 839 854 850 860 867
850 846 842 838 834 829 824 819 813 807 803 800 800 806 801 798 797 803 837 839 830 828 828 831 833 831 829 829 826 827 828 828 828 830 830 832 838 841 834 837 839 840 841 845 853 847 868
850 847 843 840 836 831 826 821 815 808 803 801 801 817 800 798 814 833 833 824 824 826 826 827 829 828 829 830 829 829 829 828 829 829 831 835 845 854 835 830 832 833 839 845 861 862 846
850 848 844 841 837 832 827 822 816 810 806 804 811 816 801 798 833 842 829 826 825 824 824 825 825 824 826 828 830 828 827 828 829 829 831 834 845 868 839 835 833 832 838 841 846 850 840
851 849 846 843 839 834 829 824 819 813 809 806 813 826 814 813 827 828 826 826 825 826 825 825 824 824 824 826 828 828 826 826 829 828 828 833 848 844 852 825 831 833 832 838 834 836 837
850 849 847 845 841 836 831 826 821 816 811 811 820 834 833 839 829 828 827 828 826 825 826 825 825 825 825 827 826 827 825 825 828 826 832 836 844 852 843 839 837 829 824 829 828 814 818
849 848 846 845 842 838 834 829 824 818 814 814 825 828 834 837 832 825 833 827 827 824 826 826 826 822 827 828 828 828 825 826 826 832 834 840 840 842 846 829 832 829 819 815 813 811 803
847 846 845 844 842 839 836 832 828 823 817 819 825 827 827 840 837 836 834 824 823 823 823 823 827 828 829 826 825 824 825 825 823 832 838 843 845 849 838 828 829 815 797 799 798 799 789
846 844 843 842 841 839 837 835 832 828 826 825 827 827 830 831 837 832 826 826 824 824 823 822 825 826 823 822 823 824 827 828 831 832 833 844 845 851 847 840 833 774 778 781 788 782 781
844 843 842 840 839 838 837 836 834 832 830 829 829 829 832 831 834 828 827 826 823 824 824 824 822 823 823 825 830 828 828 822 830 833 836 837 840 846 854 859 811 772 779 787 785 765 762
840 841 840 838 837 836 836 835 834 833 832 831 830 830 832 835 829 824 826 825 828 828 826 820 820 821 821 830 833 824 821 812 818 831 838 838 838 843 850 854 812 776 774 776 776 777 755
835 835 836 836 835 834 833 833 832 832 832 832 831 830 831 834 827 825 828 827 828 830 830 826 819 821 822 831 828 832 832 820 818 824 833 830 832 825 826 827 808 781 775 771 776 769 755
830 829 830 831 830 830 830 830 830 829 830 831 831 830 831 832 825 822 821 823 827 829 825 824 825 824 830 828 828 827 833 822 820 817 824 826 827 828 822 827 820 774 777 773 763 758 756
826 824 825 826 825 825 825 825 825 826 826 828 829 829 829 830 822 818 815 815 816 816 820 821 823 822 820 831 831 831 826 831 822 810 814 816 803 810 806 787 768 772 765 760 762 762 759
Wind_Speed
19 19 20 20 20 21 20 22 23 23 25 28 26 29 29 32 33 26 27 27 27 29 25 33 35 36 22 7 7 14 6 5 9 9 9 4 6 5 5 5 3 5 2 5 4 7 5
20 19 19 19 20 21 20 21 22 23 24 25 26 27 27 29 30 27 29 30 28 33 33 34 35 31 18 17 15 14 4 9 11 15 7 6 4 4 7 4 5 3 5 3 6 5 4
21 20 20 19 19 20 20 20 21 22 23 23 24 26 27 26 26 25 25 28 30 29 31 29 31 36 27 5 16 14 16 12 17 15 6 6 8 6 4 6 3 3 5 4 7 4 4
23 22 20 19 19 19 19 19 20 21 21 21 22 24 24 23 23 19 19 22 26 29 28 28 27 36 8 11 15 17 22 23 25 23 22 17 18 9 5 4 6 5 5 3 2 4 4
24 23 21 20 19 19 18 18 19 19 18 18 20 24 28 23 15 16 26 16 18 29 28 22 27 16 5 15 9 17 15 9 20 18 15 11 8 5 5 5 5 7 3 2 1 2 3
22 24 22 20 20 19 18 18 18 15 13 14 16 20 23 26 15 9 9 15 27 11 9 13 18 11 2 5 6 9 13 12 12 5 7 9 6 5 5 5 4 3 3 1 1 4 3
22 23 23 21 21 20 20 18 18 16 10 11 13 18 22 23 24 21 5 4 8 7 21 9 1 7 1 5 8 16 9 6 7 9 5 5 9 5 3 2 3 6 3 3 2 2 3
22 23 23 21 21 20 20 19 18 16 12 8 10 11 16 19 18 20 23 7 4 3 7 10 5 4 4 5 8 16 10 6 6 5 2 7 5 1 0 5 7 6 4 3 2 1 3
21 22 23 22 21 20 19 18 18 16 12 10 9 10 10 14 10 12 19 8 5 5 6 7 4 6 5 9 5 9 6 3 7 7 7 6 1 2 4 5 7 5 4 2 1 5 2
21 22 23 22 20 21 20 19 18 16 13 10 9 9 10 10 4 6 5 7 4 3 5 13 9 6 5 5 7 5 7 3 6 5 4 7 3 4 5 5 3 3 0 1 3 4 2
21 22 22 23 22 21 21 19 17 16 12 11 10 9 7 8 3 4 5 7 1 1 6 9 9 7 6 6 1 9 7 7 4 3 4 2 2 5 6 1 2 3 1 2 2 3 4
21 21 22 24 24 23 23 22 19 15 11 9 10 10 7 5 4 5 5 2 1 6 2 5 3 6 6 7 4 5 6 8 2 7 7 2 0 2 2 2 3 4 4 6 3 2 2
23 21 23 25 25 25 25 25 21 16 11 7 6 9 7 5 3 6 4 4 5 7 3 5 3 4 1 6 6 6 5 6 3 5 4 6 3 3 1 3 2 4 5 3 5 4 5
24 23 23 24 26 26 27 27 25 20 13 8 6 3 3 5 1 1 3 5 11 4 4 3 1 4 5 4 3 4 2 3 5 4 4 4 5 2 1 1 3 2 4 4 5 1 5
21 23 24 24 25 27 29 29 28 21 14 9 6 1 2 7 1 4 5 7 5 4 1 0 3 3 4 2 2 3 2 1 1 1 4 4 1 1 2 1 3 2 1 3 4 2 1
18 22 24 25 26 27 29 30 31 24 18 9 3 1 5 9 1 3 6 5 1 3 3 3 3 2 2 3 2 2 0 2 1 1 1 3 3 2 1 1 2 2 5 3 2 1 4
16 19 22 24 26 27 28 30 32 26 21 8 1 3 8 11 2 5 4 2 4 2 3 2 2 3 2 3 2 1 1 1 3 2 2 2 2 2 2 5 6 2 1 3 2 2 3
13 16 19 22 24 27 28 30 32 27 21 6 3 3 9 7 4 2 3 5 3 2 2 2 2 1 2 4 4 4 4 1 4 3 2 2 3 3 7 0 2 2 4 5 4 4 4
12 15 17 21 24 25 27 29 31 28 21 5 2 2 5 3 3 2 1 1 1 3 3 2 1 2 2 2 3 2 2 3 4 2 2 2 1 2 6 3 2 4 4 4 3 3 8
10 14 16 19 24 25 27 27 29 29 17 4 3 3 4 4 1 5 2 1 2 1 1 1 2 2 2 2 1 2 2 1 4 3 3 3 1 4 6 3 2 4 5 6 6 4 3
8 12 14 17 21 24 26 27 26 27 15 4 4 0 2 2 4 3 3 2 1 2 1 1 1 3 3 3 2 4 3 1 1 2 3 4 3 3 6 10 7 14 14 9 15 15 10
8 11 12 15 17 21 24 26 26 26 12 7 3 2 2 1 2 2 3 3 3 1 3 3 3 2 5 4 6 5 4 3 5 1 5 1 3 1 5 8 6 8 15 17 18 18 20
7 8 11 13 15 18 20 23 24 25 13 6 3 2 3 2 2 3 3 3 4 1 2 2 4 0 3 7 5 6 5 2 3 7 6 4 3 1 5 2 8 8 9 14 9 6 18
11 10 9 11 13 15 17 19 20 20 18 6 3 2 3 2 1 3 3 4 4 3 2 1 4 4 2 2 4 1 0 4 4 5 4 5 4 1 4 7 3 5 1 6 12 9 16
15 13 11 9 10 12 13 15 17 16 15 10 6 2 2 2 2 3 4 4 2 1 3 3 4 4 1 4 3 6 3 1 1 1 5 3 4 2 1 2 9 6 1 4 6 8 13
16 16 14 11 10 10 10 11 11 12 12 9 7 5 2 2 3 1 1 2 3 3 2 3 1 2 4 3 2 2 4 2 2 3 5 6 4 4 1 2 5 3 3 0 1 6 2
19 17 16 15 13 12 11 9 9 9 8 8 2 4 2 0 3 3 2 3 3 1 2 3 2 2 1 2 3 4 4 3 3 4 4 4 3 11 8 5 9 8 7 1 3 5 1
18 17 17 18 17 16 15 12 10 8 8 6 3 2 0 1 4 6 4 4 1 1 2 1 2 1 2 3 3 3 3 4 1 4 6 7 7 5 6 6 9 7 4 6 4 3 3
10 10 12 15 16 17 18 17 14 11 9 7 3 3 3 3 4 6 11 15 8 5 4 2 2 2 4 2 1 1 3 2 4 3 2 3 7 5 11 7 3 4 5 5 2 4 6
Wind_Direction
18 15 10 9 10 11 8 5 4 6 8 9 10 16 15 23 25 49 61 64 68 66 110 126 123 129 120 57 19 355 31 121 137 127 102 98 68 108 91 100 68 72 123 55 57 54 53
17 14 13 7 10 12 10 6 3 7 8 13 14 22 27 34 33 39 51 59 67 63 96 113 119 128 79 65 333 358 68 117 128 117 86 77 114 116 93 63 67 92 83 66 41 31 42
13 16 12 9 11 11 10 6 2 8 12 22 30 30 32 29 29 44 40 56 59 62 76 89 110 101 62 88 345 44 85 111 127 104 81 82 115 73 134 92 140 91 71 33 20 9 33
15 11 13 9 9 9 11 8 2 7 12 25 30 26 24 25 33 49 60 62 66 76 69 81 88 79 80 343 5 62 89 87 100 96 93 95 92 93 58 123 35 56 51 101 320 2 356
14 11 12 10 8 8 9 8 4 8 20 30 44 34 29 36 38 43 49 77 65 68 76 71 63 84 34 343 25 44 61 74 88 85 79 84 70 83 39 74 43 17 157 142 46 37 354
14 14 13 15 11 8 7 5 5 11 19 17 18 23 29 32 31 19 21 55 73 81 22 31 48 70 303 306 333 11 56 64 59 37 33 36 53 75 36 60 182 168 99 48 28 337 12
15 16 13 14 13 8 5 5 3 4 12 0 7 12 19 26 39 33 33 25 17 20 48 76 151 93 130 285 40 29 20 42 37 48 57 14 68 88 91 85 119 126 101 87 21 13 345
15 15 14 13 15 13 9 6 1 2 9 360 334 350 5 15 20 40 68 71 36 323 52 35 79 64 44 346 44 2 21 69 56 77 24 38 70 261 80 79 91 64 86 5 303 346 5
14 13 14 12 11 11 9 8 2 359 13 5 342 334 341 349 356 22 50 57 28 23 73 13 9 30 341 19 50 348 24 76 71 59 56 95 150 328 94 52 76 43 90 29 231 324 74
11 13 10 11 12 9 8 5 1 2 10 17 3 341 334 342 357 7 62 11 1 30 71 342 350 16 5 342 39 8 17 82 46 107 75 75 339 87 80 74 93 108 36 58 21 36 267
12 10 9 10 11 10 6 4 1 360 14 15 25 10 352 358 10 52 337 337 332 142 62 309 325 321 354 67 332 356 17 34 80 74 83 262 48 73 63 53 62 147 107 62 69 72 41
12 10 9 10 12 12 10 4 1 1 3 15 13 20 11 358 14 4 337 355 314 43 18 344 334 356 12 12 27 329 28 44 126 69 45 68 311 58 142 63 67 109 78 45 56 78 23
12 13 11 12 12 12 12 9 3 359 349 335 352 358 23 40 340 340 2 28 45 77 295 330 335 0 53 20 29 32 30 17 83 87 9 350 345 316 130 83 54 76 65 348 354 9 225
11 13 13 13 10 10 10 8 6 1 348 335 327 8 37 36 41 73 63 52 65 250 280 281 358 350 50 21 45 20 51 20 32 74 105 128 332 202 176 199 161 77 141 149 211 262 281
7 11 13 11 11 9 9 8 6 2 359 357 334 44 47 3 78 147 77 49 168 213 280 276 327 72 7 38 126 90 69 140 295 41 133 134 339 312 207 350 113 167 68 181 100 189 292
5 9 11 10 10 10 9 7 6 3 359 356 355 21 9 359 20 120 69 116 90 220 348 27 358 11 24 330 51 74 203 199 186 227 132 212 110 228 213 72 32 183 149 92 49 202 279
1 5 10 9 9 8 9 7 4 4 357 345 33 50 358 353 51 51 96 143 155 162 113 70 10 344 13 358 0 13 161 195 178 149 100 139 90 280 59 206 183 123 215 84 126 173 192
357 359 4 7 8 7 7 7 5 5 4 11 63 41 351 9 46 33 100 151 171 147 105 128 116 13 39 357 3 13 3 280 155 145 66 13 121 198 212 333 177 166 181 155 130 231 223
352 1 358 1 3 6 6 6 5 7 8 2 68 243 351 9 92 27 230 91 10 144 176 152 130 121 100 47 21 34 2 347 138 119 144 185 37 10 348 15 43 220 195 165 117 110 212
352 350 355 355 356 1 5 6 6 5 7 34 73 20 341 41 91 113 124 153 139 360 298 215 171 153 130 110 146 297 324 96 185 167 124 94 158 200 200 200 152 236 207 196 166 208 198
339 345 349 351 354 359 1 3 7 6 6 28 29 256 190 335 359 77 81 164 132 236 236 186 250 237 171 172 187 205 207 242 132 176 89 121 234 194 253 258 242 253 251 207 211 221 209
327 338 342 346 352 356 359 1 5 9 10 69 95 101 21 30 318 74 356 206 219 293 170 279 220 172 189 206 201 210 179 200 207 130 159 134 248 99 273 264 233 255 245 232 228 233 246
299 319 332 340 344 351 356 0 6 13 22 70 70 103 109 318 1 93 218 202 203 144 210 202 211 337 264 248 227 232 219 252 201 165 184 161 189 60 264 318 298 280 235 203 205 220 223
290 292 312 325 335 344 352 354 6 15 26 47 57 87 78 277 168 224 200 188 230 222 239 249 160 161 238 350 313 22 211 233 196 233 167 148 142 145 288 344 331 258 247 174 200 235 218
295 295 295 300 316 333 342 349 356 9 19 34 39 44 104 274 223 276 233 220 254 283 220 233 231 202 29 40 347 328 332 282 106 127 205 158 144 298 281 251 292 319 83 134 176 282 223
287 289 295 297 295 307 322 339 342 351 6 11 31 34 79 105 247 281 229 239 219 219 297 216 213 172 89 104 98 253 245 256 217 133 44 119 100 141 55 308 268 257 345 106 188 300 308
268 276 281 282 283 283 290 303 313 322 339 359 360 10 81 81 263 144 209 222 151 86 263 305 190 149 44 134 175 204 261 204 218 197 179 136 170 210 215 247 279 248 217 324 20 258 332
270 271 267 275 272 273 270 272 278 293 301 318 311 302 80 202 270 194 206 175 204 160 177 251 14 326 61 175 177 209 199 233 267 191 175 178 165 195 195 218 269 158 83 163 219 281 298
264 272 280 274 266 269 263 257 255 256 264 266 259 245 229 207 260 237 241 246 228 195 169 159 219 184 207 101 231 87 243 245 186 248 113 251 199 184 194 216 218 223 241 249 243 265 274